Location: Newark
(34.9500°N, 139.9667°E)
Time: 14:24:24
(UTC+00:00)

Altair - Pass Details

Date: 15 December 2019
Orbit: 1502 x 1682 km, 47.2° (Epoch: 19 January)

Event Time Altitude Azimuth Distance (km) Brightness Sun altitude
Rises 10:54:26 0° 250° (WSW) 4,832 10.9 -41.0°
Reaches altitude 10° 10:57:40 10° 253° (WSW) 3,823 10.2 -41.7°
Enters shadow 11:05:43 55° 298° (WNW) 1,830 7.9 -43.3°
